Flag for China Weather past 2 weeks in Chongqing, Chongqing Municipality, China

Now
73 °F

Fog.


Feels Like: 72 °F
Forecast: 73 / 87 °F
Wind: 3 mph from Northeast

Location: Chongqing Airport

Current Time: Aug 28, 2015 at 10:16:33 AM

Latest Report: Aug 28, 2015 at 9:00 AM


Visibility: 1 mi

Pressure: 29.89 "Hg

Humidity: 89%

Dew point: 70 °F

Location of ChongqingLocation

Historic Weather in Chongqing — Graph

°F

Chongqing temperature yesterday

Maximum temperature yesterday: 77 °F (at 12:00 AM)
Minimum temperature yesterday: 73 °F (at 4:00 AM)
Average temperature yesterday: 75 °F

Past Weeks' High & Low Weather Summary

 TemperatureHumidityPressure
High93 °F (Aug 13, 3:00 PM)94% (Aug 17, 11:00 AM)30.01 "Hg (Aug 17, 11:00 AM)
Low70 °F (Aug 19, 7:00 AM)41% (Aug 24, 2:00 PM)29.62 "Hg (Aug 14, 3:00 PM)
Average79 °F75%29.78 "Hg
* Reported Aug 13 9:00 AM — Aug 28 9:00 AM, Chongqing, Weather by CustomWeather, © 2015

Note: Actual official high and low records may vary slightly from our data, if they occured in-between our weather recording intervals... More about our weather records

Advertising

Chongqing weather history for previous 24 hours

 ConditionsComfort  
Time TempWeatherWind HumidityBarometerVisibility
9:00 AM
Fri, Aug 28
73 °FFog.3 mph89%29.89 "Hg1 mi
8:00 AM72 °FFog.3 mph94%29.86 "Hg1 mi
7:00 AM72 °FFog.3 mph94%29.86 "Hg1 mi
6:00 AM73 °FFog.1 mph89%29.86 "Hg1 mi
5:00 AM73 °FFog.No wind89%29.86 "Hg1 mi
4:00 AM73 °FFog.1 mph89%29.86 "Hg1 mi
3:00 AM73 °FFog.1 mph89%29.86 "Hg1 mi
2:00 AM73 °FFog.1 mph89%29.86 "Hg2 mi
1:00 AM73 °FFog.1 mph89%29.89 "Hg2 mi
12:00 AM75 °FFog.1 mph83%29.89 "Hg2 mi
11:00 PM
Thu, Aug 27
75 °FFog.1 mph83%29.92 "Hg2 mi
10:00 PM75 °FLight rain. Fog.1 mph83%29.89 "Hg3 mi
9:00 PM75 °FLight rain. Fog.3 mph83%29.89 "Hg3 mi
8:00 PM75 °FLight rain. Fog.3 mph83%29.83 "Hg3 mi
7:00 PM77 °FPassing clouds.3 mph79%29.83 "Hg4 mi
6:00 PM77 °FPassing clouds.1 mph79%29.80 "Hg4 mi
5:00 PM77 °FPassing clouds.1 mph79%29.80 "Hg4 mi
4:00 PM77 °FPassing clouds.3 mph79%29.83 "Hg4 mi
3:00 PM77 °FLight rain. Fog.3 mph79%29.83 "Hg3 mi
2:00 PM75 °FLight rain. Fog.6 mph83%29.86 "Hg3 mi
1:00 PM73 °FLight rain. Fog.1 mph89%29.86 "Hg3 mi
12:00 PM73 °FLight rain. Fog.1 mph89%29.89 "Hg3 mi
11:00 AM73 °FLight rain. Fog.1 mph83%29.89 "Hg3 mi
10:00 AM75 °FLight rain. Scattered clouds.1 mph78%29.86 "Hg5 mi
Weather by CustomWeather, © 2015

See weather overviewHow to use our weather pages